Year,Month,Day,Hour,Minute,Value (Times are PST for temperature in C)
2007,07,17,00,00,19.00
2007,07,17,00,01,19.00
2007,07,17,00,02,19.00
2007,07,17,00,03,18.90
2007,07,17,00,04,18.90
2007,07,17,00,05,19.00
2007,07,17,00,06,18.90
2007,07,17,00,07,18.90
2007,07,17,00,08,18.90
2007,07,17,00,09,18.90
2007,07,17,00,10,18.90
2007,07,17,00,11,18.90
2007,07,17,00,12,18.90
2007,07,17,00,13,19.00
2007,07,17,01,02,18.90
2007,07,17,01,03,18.90
2007,07,17,01,04,18.90
2007,07,17,01,05,18.90
2007,07,17,01,06,18.90
2007,07,17,01,07,18.90
2007,07,17,01,08,18.90
2007,07,17,01,09,18.90
2007,07,17,01,10,18.90
2007,07,17,01,11,18.90
2007,07,17,01,12,18.90
2007,07,17,01,13,18.90
2007,07,17,01,14,18.90
2007,07,17,01,15,18.90
2007,07,17,01,16,18.90
2007,07,17,01,17,18.90
2007,07,17,01,18,18.90
2007,07,17,01,19,18.90
2007,07,17,01,20,18.90
2007,07,17,01,21,18.80
2007,07,17,01,22,18.80
2007,07,17,01,23,18.80
2007,07,17,01,24,18.80
2007,07,17,01,25,18.80
2007,07,17,01,26,18.80
2007,07,17,01,27,18.80
2007,07,17,01,28,18.80
2007,07,17,01,29,18.80
2007,07,17,01,30,18.80
2007,07,17,01,31,18.80
2007,07,17,01,32,18.80
2007,07,17,01,33,18.90
2007,07,17,01,34,18.90
2007,07,17,01,35,18.80
2007,07,17,01,36,18.90
2007,07,17,01,37,18.90
2007,07,17,01,38,18.90
2007,07,17,01,39,18.90
2007,07,17,01,40,18.90
2007,07,17,01,41,18.90
2007,07,17,01,42,18.90
2007,07,17,01,43,18.90
2007,07,17,01,44,18.90
2007,07,17,01,45,18.90
2007,07,17,01,46,18.90
2007,07,17,01,47,18.90
2007,07,17,01,48,19.00
2007,07,17,01,49,19.00
2007,07,17,01,50,19.00
2007,07,17,01,51,19.00
2007,07,17,01,52,19.00
2007,07,17,01,53,19.00
2007,07,17,01,54,19.00
2007,07,17,01,55,19.00
2007,07,17,01,56,19.00
2007,07,17,01,57,19.00
2007,07,17,01,58,19.00
2007,07,17,01,59,18.90
2007,07,17,02,00,18.90
2007,07,17,02,01,18.90
2007,07,17,02,02,18.80
2007,07,17,02,03,18.70
2007,07,17,02,04,18.60
2007,07,17,02,05,18.60
2007,07,17,02,06,18.50
2007,07,17,02,07,18.50
2007,07,17,02,08,18.40
2007,07,17,02,09,18.40
2007,07,17,02,10,18.30
2007,07,17,02,11,18.30
2007,07,17,02,12,18.30
2007,07,17,02,13,18.30
2007,07,17,02,14,18.20
2007,07,17,02,15,18.20
2007,07,17,02,16,18.20
2007,07,17,02,17,18.20
2007,07,17,02,18,18.10
2007,07,17,02,19,18.10
2007,07,17,02,20,18.00
2007,07,17,02,21,18.00
2007,07,17,02,22,17.90
2007,07,17,02,23,17.90
2007,07,17,02,24,17.90
2007,07,17,02,25,17.80
2007,07,17,02,26,17.80
2007,07,17,02,27,17.70
2007,07,17,02,28,17.70
2007,07,17,02,29,17.70
2007,07,17,02,30,17.70
2007,07,17,02,31,17.70
2007,07,17,02,32,17.70
2007,07,17,02,33,17.70
2007,07,17,02,34,17.70
2007,07,17,02,35,17.70
2007,07,17,02,36,17.70
2007,07,17,02,37,17.70
2007,07,17,02,38,17.70
2007,07,17,02,39,17.60
2007,07,17,02,40,17.60
2007,07,17,02,41,17.60
2007,07,17,02,42,17.60
2007,07,17,02,43,17.60
2007,07,17,02,44,17.60
2007,07,17,02,45,17.60
2007,07,17,02,46,17.60
2007,07,17,02,47,17.50
2007,07,17,02,48,17.50
2007,07,17,02,49,17.40
2007,07,17,02,50,17.40
2007,07,17,02,51,17.40
2007,07,17,02,52,17.30
2007,07,17,02,53,17.30
2007,07,17,02,54,17.30
2007,07,17,02,55,17.20
2007,07,17,02,56,17.20
2007,07,17,02,57,17.20
2007,07,17,02,58,17.20
2007,07,17,02,59,17.10
2007,07,17,03,00,17.10
2007,07,17,03,01,17.10
2007,07,17,03,02,17.10
2007,07,17,03,03,17.10
2007,07,17,03,04,17.20
2007,07,17,03,05,17.20
2007,07,17,03,06,17.20
2007,07,17,03,07,17.20
2007,07,17,03,08,17.30
2007,07,17,03,09,17.30
2007,07,17,03,10,17.30
2007,07,17,03,11,17.30
2007,07,17,03,12,17.30
2007,07,17,03,13,17.30
2007,07,17,03,14,17.30
2007,07,17,03,15,17.30
2007,07,17,03,16,17.40
2007,07,17,03,17,17.40
2007,07,17,03,18,17.40
2007,07,17,03,19,17.40
2007,07,17,03,20,17.40
2007,07,17,03,21,17.40
2007,07,17,03,22,17.40
2007,07,17,03,23,17.30
2007,07,17,03,24,17.30
2007,07,17,03,25,17.30
2007,07,17,03,26,17.30
2007,07,17,03,27,17.30
2007,07,17,03,28,17.30
2007,07,17,03,29,17.30
2007,07,17,03,30,17.20
2007,07,17,03,31,17.20
2007,07,17,03,32,17.20
2007,07,17,03,33,17.10
2007,07,17,03,34,17.10
2007,07,17,03,35,17.10
2007,07,17,03,36,17.00
2007,07,17,03,37,16.90
2007,07,17,03,38,16.90
2007,07,17,03,39,16.90
2007,07,17,03,40,16.80
2007,07,17,03,41,16.80
2007,07,17,03,42,16.70
2007,07,17,03,43,16.70
2007,07,17,03,44,16.70
2007,07,17,03,45,16.60
2007,07,17,03,46,16.60
2007,07,17,03,47,16.60
2007,07,17,03,48,16.60
2007,07,17,03,49,16.50
2007,07,17,03,50,16.50
2007,07,17,03,51,16.40
2007,07,17,03,52,16.40
2007,07,17,03,53,16.40
2007,07,17,03,54,16.40
2007,07,17,03,55,16.30
2007,07,17,03,56,16.30
2007,07,17,03,57,16.30
2007,07,17,03,58,16.30
2007,07,17,03,59,16.30
2007,07,17,04,00,16.30
2007,07,17,04,01,16.30
2007,07,17,04,02,16.30
2007,07,17,04,03,16.30
2007,07,17,04,04,16.30
2007,07,17,04,05,16.30
2007,07,17,04,06,16.20
2007,07,17,04,07,16.20
2007,07,17,04,08,16.20
2007,07,17,04,09,16.20
2007,07,17,04,10,16.20
2007,07,17,04,11,16.20
2007,07,17,04,12,16.20
2007,07,17,04,13,16.20
2007,07,17,04,14,16.20
2007,07,17,04,15,16.20
2007,07,17,04,16,16.20
2007,07,17,04,17,16.20
2007,07,17,04,18,16.20
2007,07,17,04,19,16.20
2007,07,17,04,20,16.20
2007,07,17,04,21,16.20
2007,07,17,04,22,16.20
2007,07,17,04,23,16.20
2007,07,17,04,24,16.20
2007,07,17,04,25,16.30
2007,07,17,04,26,16.30
2007,07,17,04,27,16.30
2007,07,17,04,28,16.30
2007,07,17,04,29,16.30
2007,07,17,04,30,16.30
2007,07,17,04,31,16.40
2007,07,17,04,32,16.40
2007,07,17,04,33,16.40
2007,07,17,04,34,16.40
2007,07,17,04,35,16.50
2007,07,17,04,36,16.50
2007,07,17,04,37,16.50
2007,07,17,04,38,16.50
2007,07,17,04,39,16.60
2007,07,17,04,40,16.60
2007,07,17,04,41,16.60
2007,07,17,04,42,16.60
2007,07,17,04,43,16.60
2007,07,17,04,44,16.60
2007,07,17,04,45,16.60
2007,07,17,04,46,16.60
2007,07,17,04,47,16.60
2007,07,17,04,48,16.60
2007,07,17,04,49,16.60
2007,07,17,04,50,16.60
2007,07,17,04,51,16.60
2007,07,17,04,52,16.60
2007,07,17,04,53,16.50
2007,07,17,04,54,16.50
2007,07,17,04,55,16.50
2007,07,17,04,56,16.40
2007,07,17,04,57,16.40
2007,07,17,04,58,16.40
2007,07,17,04,59,16.40
2007,07,17,05,00,16.30
2007,07,17,05,01,16.30
2007,07,17,05,02,16.30
2007,07,17,05,03,16.30
2007,07,17,05,04,16.20
2007,07,17,05,05,16.20
2007,07,17,05,06,16.20
2007,07,17,05,07,16.10
2007,07,17,05,08,16.10
2007,07,17,05,09,16.10
2007,07,17,05,10,16.00
2007,07,17,05,11,16.00
2007,07,17,05,12,15.90
2007,07,17,05,13,15.90
2007,07,17,05,14,15.90
2007,07,17,05,15,15.90
2007,07,17,05,16,15.90
2007,07,17,05,17,15.80
2007,07,17,05,18,15.80
2007,07,17,05,19,15.80
2007,07,17,05,20,15.80
2007,07,17,05,21,15.80
2007,07,17,05,22,15.80
2007,07,17,05,23,15.80
2007,07,17,05,24,15.80
2007,07,17,05,25,15.80
2007,07,17,05,26,15.80
2007,07,17,05,27,15.80
2007,07,17,05,28,15.80
2007,07,17,05,29,15.80
2007,07,17,05,30,15.80
2007,07,17,05,31,15.80
2007,07,17,05,32,15.80
2007,07,17,05,33,15.70
2007,07,17,05,34,15.70
2007,07,17,05,35,15.70
2007,07,17,05,36,15.70
2007,07,17,05,37,15.60
2007,07,17,05,38,15.60
2007,07,17,05,39,15.60
2007,07,17,05,40,15.60
2007,07,17,05,41,15.60
2007,07,17,05,42,15.60
2007,07,17,05,43,15.60
2007,07,17,05,44,15.60
2007,07,17,05,45,15.60
2007,07,17,05,46,15.60
2007,07,17,05,47,15.60
2007,07,17,05,48,15.60
2007,07,17,05,49,15.60
2007,07,17,05,50,15.60
2007,07,17,05,51,15.60
2007,07,17,05,52,15.60
2007,07,17,05,53,15.60
2007,07,17,05,54,15.60
2007,07,17,05,55,15.60
2007,07,17,05,56,15.60
2007,07,17,05,57,15.60
2007,07,17,05,58,15.60
2007,07,17,05,59,15.60
2007,07,17,06,00,15.50
2007,07,17,06,01,15.50
2007,07,17,06,02,15.50
2007,07,17,06,03,15.50
2007,07,17,06,04,15.50
2007,07,17,06,05,15.50
2007,07,17,06,06,15.50
2007,07,17,06,07,15.60
2007,07,17,06,08,15.60
2007,07,17,06,09,15.60
2007,07,17,06,10,15.60
2007,07,17,06,11,15.60
2007,07,17,06,12,15.60
2007,07,17,06,13,15.60
2007,07,17,06,14,15.60
2007,07,17,06,15,15.70
2007,07,17,06,16,15.70
2007,07,17,06,17,15.70
2007,07,17,06,18,15.70
2007,07,17,06,19,15.80
2007,07,17,06,20,15.80
2007,07,17,06,21,15.80
2007,07,17,06,22,15.80
2007,07,17,06,23,15.80
2007,07,17,06,24,15.90
2007,07,17,06,25,15.90
2007,07,17,06,26,15.90
2007,07,17,06,27,15.90
2007,07,17,06,28,15.90
2007,07,17,06,29,16.00
2007,07,17,06,30,16.00
2007,07,17,06,31,16.00
2007,07,17,06,32,16.00
2007,07,17,06,33,15.90
2007,07,17,06,34,15.80
2007,07,17,06,35,15.70
2007,07,17,06,36,15.60
2007,07,17,06,37,15.40
2007,07,17,06,38,15.30
2007,07,17,06,39,15.20
2007,07,17,06,40,15.00
2007,07,17,06,41,15.00
2007,07,17,06,42,15.00
2007,07,17,06,43,15.00
2007,07,17,06,44,15.00
2007,07,17,06,45,15.00
2007,07,17,06,46,15.00
2007,07,17,06,47,15.00
2007,07,17,06,48,15.00
2007,07,17,06,49,15.00
2007,07,17,06,50,15.00
2007,07,17,06,51,15.00
2007,07,17,06,52,15.00
2007,07,17,06,53,15.00
2007,07,17,06,54,15.00
2007,07,17,06,55,15.00
2007,07,17,06,56,15.00
2007,07,17,06,57,15.00
2007,07,17,06,58,15.00
2007,07,17,06,59,15.00
2007,07,17,07,00,15.00
2007,07,17,07,01,15.00
2007,07,17,07,02,15.00
2007,07,17,07,03,15.00
2007,07,17,07,04,15.00
2007,07,17,07,05,15.00
2007,07,17,07,06,15.00
2007,07,17,07,07,15.00
2007,07,17,07,08,15.00
2007,07,17,07,09,15.00
2007,07,17,07,10,15.00
2007,07,17,07,11,15.00
2007,07,17,07,12,15.00
2007,07,17,07,13,15.10
2007,07,17,07,14,15.10
2007,07,17,07,15,15.10
2007,07,17,07,16,15.20
2007,07,17,07,17,15.20
2007,07,17,07,18,15.30
2007,07,17,07,19,15.30
2007,07,17,07,20,15.30
2007,07,17,07,21,15.40
2007,07,17,07,22,15.40
2007,07,17,07,23,15.40
2007,07,17,07,24,15.50
2007,07,17,07,25,15.50
2007,07,17,07,26,15.50
2007,07,17,07,27,15.60
2007,07,17,07,28,15.60
2007,07,17,07,29,15.60
2007,07,17,07,30,15.60
2007,07,17,07,31,15.60
2007,07,17,07,32,15.60
2007,07,17,07,33,15.60
2007,07,17,07,34,15.60
2007,07,17,07,35,15.60
2007,07,17,07,36,15.60
2007,07,17,07,37,15.60
2007,07,17,07,38,15.60
2007,07,17,07,39,15.60
2007,07,17,07,40,15.60
2007,07,17,07,41,15.60
2007,07,17,07,42,15.50
2007,07,17,07,43,15.50
2007,07,17,07,44,15.40
2007,07,17,07,45,15.30
2007,07,17,07,46,15.20
2007,07,17,07,47,15.10
2007,07,17,07,48,15.00
2007,07,17,07,49,15.00
2007,07,17,07,50,14.80
2007,07,17,07,51,14.80
2007,07,17,07,52,14.70
2007,07,17,07,53,14.70
2007,07,17,07,54,14.60
2007,07,17,07,55,14.60
2007,07,17,07,56,14.60
2007,07,17,07,57,14.60
2007,07,17,07,58,14.60
2007,07,17,07,59,14.60
2007,07,17,08,00,14.60
2007,07,17,08,01,14.50
2007,07,17,08,02,14.50
2007,07,17,08,03,14.50
2007,07,17,08,04,14.40
2007,07,17,08,05,14.40
2007,07,17,08,06,14.40
2007,07,17,08,07,14.40
2007,07,17,08,08,14.40
2007,07,17,08,09,14.40
2007,07,17,08,10,14.40
2007,07,17,08,11,14.40
2007,07,17,08,12,14.40
2007,07,17,08,13,14.40
2007,07,17,08,14,14.40
2007,07,17,08,15,14.40
2007,07,17,08,16,14.40
2007,07,17,08,17,14.40
2007,07,17,08,18,14.30
2007,07,17,08,19,14.30
2007,07,17,08,20,14.30
2007,07,17,08,21,14.30
2007,07,17,08,22,14.30
2007,07,17,08,23,14.30
2007,07,17,08,24,14.30
2007,07,17,08,25,14.30
2007,07,17,08,26,14.30
2007,07,17,08,27,14.30
2007,07,17,08,28,14.30
2007,07,17,08,29,14.30
2007,07,17,08,30,14.30
2007,07,17,08,31,14.30
2007,07,17,08,32,14.30
2007,07,17,08,33,14.30
2007,07,17,08,34,14.30
2007,07,17,08,35,14.20
2007,07,17,08,36,14.20
2007,07,17,08,37,14.20
2007,07,17,08,38,14.20
2007,07,17,08,39,14.20
2007,07,17,08,40,14.20
2007,07,17,08,41,14.20
2007,07,17,08,42,14.20
2007,07,17,08,43,14.20
2007,07,17,08,44,14.20
2007,07,17,08,45,14.20
2007,07,17,08,46,14.20
2007,07,17,08,47,14.20
2007,07,17,08,48,14.20
2007,07,17,08,49,14.20
2007,07,17,08,50,14.20
2007,07,17,08,51,14.20
2007,07,17,08,52,14.20
2007,07,17,08,53,14.20
2007,07,17,08,54,14.20
2007,07,17,08,55,14.20
2007,07,17,08,56,14.20
2007,07,17,08,57,14.30
2007,07,17,08,58,14.30
2007,07,17,08,59,14.30
2007,07,17,09,00,14.30
2007,07,17,09,01,14.30
2007,07,17,09,02,14.30
2007,07,17,09,03,14.30
2007,07,17,09,04,14.30
2007,07,17,09,05,14.30
2007,07,17,09,06,14.30
2007,07,17,09,07,14.30
2007,07,17,09,08,14.30
2007,07,17,09,09,14.30
2007,07,17,09,10,14.30
2007,07,17,09,11,14.30
2007,07,17,09,12,14.30
2007,07,17,09,13,14.30
2007,07,17,09,14,14.30
2007,07,17,09,15,14.30
2007,07,17,09,16,14.40
2007,07,17,09,17,14.40
2007,07,17,09,18,14.40
2007,07,17,09,19,14.40
2007,07,17,09,20,14.50
2007,07,17,09,21,14.50
2007,07,17,09,22,14.50
2007,07,17,09,23,14.60
2007,07,17,09,24,14.60
2007,07,17,09,25,14.60
2007,07,17,09,26,14.60
2007,07,17,09,27,14.60
2007,07,17,09,28,14.60
2007,07,17,09,29,14.60
2007,07,17,09,30,14.60
2007,07,17,09,31,14.70
2007,07,17,09,32,14.70
2007,07,17,09,33,14.70
2007,07,17,09,34,14.80
2007,07,17,09,35,14.80
2007,07,17,09,36,14.80
2007,07,17,09,37,14.80
2007,07,17,09,38,14.80
2007,07,17,09,39,14.80
2007,07,17,09,40,14.80
2007,07,17,09,41,14.90
2007,07,17,09,42,14.90
2007,07,17,09,43,14.90
2007,07,17,09,44,14.90
2007,07,17,09,45,15.00
2007,07,17,09,46,15.00
2007,07,17,09,47,15.00
2007,07,17,09,48,15.00
2007,07,17,09,49,15.00
2007,07,17,09,50,15.00
2007,07,17,09,51,15.00
2007,07,17,09,52,15.00
2007,07,17,09,53,15.10
2007,07,17,09,54,15.10
2007,07,17,09,55,15.20
2007,07,17,09,56,15.20
2007,07,17,09,57,15.30
2007,07,17,09,58,15.30
2007,07,17,09,59,15.40
2007,07,17,10,00,15.50
2007,07,17,10,01,15.50
2007,07,17,10,02,15.60
2007,07,17,10,03,15.60
2007,07,17,10,04,15.60
2007,07,17,10,05,15.70
2007,07,17,10,06,15.70
2007,07,17,10,07,15.70
2007,07,17,10,08,15.70
2007,07,17,10,09,15.70
2007,07,17,10,10,15.60
2007,07,17,10,11,15.60
2007,07,17,10,12,15.50
2007,07,17,10,13,15.40
2007,07,17,10,14,15.40
2007,07,17,10,15,15.40
2007,07,17,10,16,15.40
2007,07,17,10,17,15.50
2007,07,17,10,18,15.40
2007,07,17,10,19,15.40
2007,07,17,10,20,15.40
2007,07,17,10,21,15.40
2007,07,17,10,22,15.30
2007,07,17,10,23,15.30
2007,07,17,10,24,15.40
2007,07,17,10,25,15.40
2007,07,17,10,26,15.50
2007,07,17,10,27,15.50
2007,07,17,10,28,15.60
2007,07,17,10,29,15.60
2007,07,17,10,30,15.60
2007,07,17,10,31,15.60
2007,07,17,10,32,15.70
2007,07,17,10,33,15.70
2007,07,17,10,34,15.70
2007,07,17,10,35,15.80
2007,07,17,10,36,15.80
2007,07,17,10,37,15.80
2007,07,17,10,38,15.80
2007,07,17,10,39,15.90
2007,07,17,10,40,15.90
2007,07,17,10,41,16.00
2007,07,17,10,42,16.00
2007,07,17,10,43,16.10
2007,07,17,10,44,16.10
2007,07,17,10,45,16.10
2007,07,17,10,46,16.10
2007,07,17,10,47,16.10
2007,07,17,10,48,16.00
2007,07,17,10,49,16.00
2007,07,17,10,50,15.90
2007,07,17,10,51,15.90
2007,07,17,10,52,15.90
2007,07,17,10,53,16.00
2007,07,17,10,54,16.00
2007,07,17,10,55,16.00
2007,07,17,10,56,16.10
2007,07,17,10,57,16.10
2007,07,17,10,58,16.20
2007,07,17,10,59,16.30
2007,07,17,11,00,16.30
2007,07,17,11,01,16.30
2007,07,17,11,02,16.40
2007,07,17,11,03,16.40
2007,07,17,11,04,16.40
2007,07,17,11,05,16.40
2007,07,17,11,06,16.40
2007,07,17,11,07,16.40
2007,07,17,11,08,16.50
2007,07,17,11,09,16.50
2007,07,17,11,10,16.50
2007,07,17,11,11,16.60
2007,07,17,11,12,16.60
2007,07,17,11,13,16.60
2007,07,17,11,14,16.70
2007,07,17,11,15,16.70
2007,07,17,11,16,16.70
2007,07,17,11,17,16.70
2007,07,17,11,18,16.70
2007,07,17,11,19,16.70
2007,07,17,11,20,16.70
2007,07,17,11,21,16.80
2007,07,17,11,22,16.80
2007,07,17,11,23,16.80
2007,07,17,11,24,16.80
2007,07,17,11,25,16.80
2007,07,17,11,26,16.80
2007,07,17,11,27,16.90
2007,07,17,11,28,16.90
2007,07,17,11,29,16.90
2007,07,17,11,30,16.90
2007,07,17,11,31,17.00
2007,07,17,11,32,17.00
2007,07,17,11,33,17.00
2007,07,17,11,34,17.00
2007,07,17,11,35,16.90
2007,07,17,11,36,16.90
2007,07,17,11,37,16.90
2007,07,17,11,38,16.80
2007,07,17,11,39,16.80
2007,07,17,11,40,16.70
2007,07,17,11,41,16.60
2007,07,17,11,42,16.50
2007,07,17,11,43,16.30
2007,07,17,11,44,16.10
2007,07,17,11,45,15.80
2007,07,17,11,46,15.60
2007,07,17,11,47,15.40
2007,07,17,11,48,15.30
2007,07,17,11,49,15.20
2007,07,17,11,50,15.00
2007,07,17,11,51,15.00
2007,07,17,11,52,15.00
2007,07,17,11,53,14.80
2007,07,17,11,54,14.70
2007,07,17,11,55,14.60
2007,07,17,11,56,14.60
2007,07,17,11,57,14.60
2007,07,17,11,58,14.50
2007,07,17,11,59,14.50
2007,07,17,12,00,14.40
2007,07,17,12,01,14.30
2007,07,17,12,02,14.30
2007,07,17,12,03,14.30
2007,07,17,12,04,14.20
2007,07,17,12,05,14.20
2007,07,17,12,06,14.20
2007,07,17,12,07,14.20
2007,07,17,12,08,14.20
2007,07,17,12,09,14.20
2007,07,17,12,10,14.10
2007,07,17,12,11,14.10
2007,07,17,12,12,14.10
2007,07,17,12,13,14.00
2007,07,17,12,14,13.90
2007,07,17,12,15,13.90
2007,07,17,12,16,13.80
2007,07,17,12,17,13.80
2007,07,17,12,18,13.70
2007,07,17,12,19,13.70
2007,07,17,12,20,13.60
2007,07,17,12,21,13.60
2007,07,17,12,22,13.60
2007,07,17,12,23,13.70
2007,07,17,12,24,13.70
2007,07,17,12,25,13.70
2007,07,17,12,26,13.80
2007,07,17,12,27,13.80
2007,07,17,12,28,13.80
2007,07,17,12,29,13.90
2007,07,17,12,30,13.90
2007,07,17,12,31,13.90
2007,07,17,12,32,13.90
2007,07,17,12,33,13.90
2007,07,17,12,34,13.90
2007,07,17,12,35,13.90
2007,07,17,12,36,14.00
2007,07,17,12,37,14.00
2007,07,17,12,38,14.10
2007,07,17,12,39,14.10
2007,07,17,12,40,14.20
2007,07,17,12,41,14.20
2007,07,17,12,42,14.30
2007,07,17,12,43,14.30
2007,07,17,12,44,14.40
2007,07,17,12,45,14.40
2007,07,17,12,46,14.50
2007,07,17,12,47,14.50
2007,07,17,12,48,14.60
2007,07,17,12,49,14.60
2007,07,17,12,50,14.50
2007,07,17,12,51,14.40
2007,07,17,12,52,14.40
2007,07,17,12,53,14.30
2007,07,17,12,54,14.30
2007,07,17,12,55,14.20
2007,07,17,12,56,14.10
2007,07,17,12,57,14.10
2007,07,17,12,58,14.10
2007,07,17,12,59,14.00
2007,07,17,13,00,14.00
2007,07,17,13,01,14.00
2007,07,17,13,02,14.00
2007,07,17,13,03,14.00
2007,07,17,13,04,13.90
2007,07,17,13,05,13.90
2007,07,17,13,06,13.90
2007,07,17,13,07,13.80
2007,07,17,13,08,13.80
2007,07,17,13,09,13.70
2007,07,17,13,10,13.70
2007,07,17,13,11,13.70
2007,07,17,13,12,13.60
2007,07,17,13,13,13.60
2007,07,17,13,14,13.50
2007,07,17,13,15,13.40
2007,07,17,13,16,13.40
2007,07,17,13,17,13.30
2007,07,17,13,18,13.30
2007,07,17,13,19,13.20
2007,07,17,13,20,13.10
2007,07,17,13,21,13.00
2007,07,17,13,22,13.00
2007,07,17,13,23,12.90
2007,07,17,13,24,12.80
2007,07,17,13,25,12.80
2007,07,17,13,26,12.80
2007,07,17,13,27,12.70
2007,07,17,13,28,12.70
2007,07,17,13,29,12.70
2007,07,17,13,30,12.80
2007,07,17,13,31,12.80
2007,07,17,13,32,12.80
2007,07,17,13,33,12.80
2007,07,17,13,34,12.80
2007,07,17,13,35,12.80
2007,07,17,13,36,12.80
2007,07,17,13,37,12.80
2007,07,17,13,38,12.80
2007,07,17,13,39,12.80
2007,07,17,13,40,12.80
2007,07,17,13,41,12.90
2007,07,17,13,42,12.90
2007,07,17,13,43,13.00
2007,07,17,13,44,13.10
2007,07,17,13,45,13.20
2007,07,17,13,46,13.30
2007,07,17,13,47,13.30
2007,07,17,13,48,13.40
2007,07,17,13,49,13.50
2007,07,17,13,50,13.60
2007,07,17,13,51,13.60
2007,07,17,13,52,13.70
2007,07,17,13,53,13.70
2007,07,17,13,54,13.80
2007,07,17,13,55,13.80
2007,07,17,13,56,13.80
2007,07,17,13,57,13.90
2007,07,17,13,58,13.90
2007,07,17,13,59,14.00
2007,07,17,14,00,14.00
2007,07,17,14,01,14.10
2007,07,17,14,02,14.10
2007,07,17,14,03,14.10
2007,07,17,14,04,14.10
2007,07,17,14,05,14.10
2007,07,17,14,06,14.10
2007,07,17,14,07,14.10
2007,07,17,14,08,14.10
2007,07,17,14,09,14.10
2007,07,17,14,10,14.20
2007,07,17,14,11,14.20
2007,07,17,14,12,14.20
2007,07,17,14,13,14.30
2007,07,17,14,14,14.30
2007,07,17,14,15,14.40
2007,07,17,14,16,14.50
2007,07,17,14,17,14.50
2007,07,17,14,18,14.60
2007,07,17,14,19,14.70
2007,07,17,14,20,14.80
2007,07,17,14,21,14.90
2007,07,17,14,22,15.00
2007,07,17,14,23,15.00
2007,07,17,14,24,15.00
2007,07,17,14,25,15.00
2007,07,17,14,26,15.10
2007,07,17,14,27,15.20
2007,07,17,14,28,15.20
2007,07,17,14,29,15.20
2007,07,17,14,30,15.20
2007,07,17,14,31,15.30
2007,07,17,14,32,15.40
2007,07,17,14,33,15.40
2007,07,17,14,34,15.50
2007,07,17,14,35,15.50
2007,07,17,14,36,15.50
2007,07,17,14,37,15.40
2007,07,17,14,38,15.40
2007,07,17,14,39,15.40
2007,07,17,14,40,15.50
2007,07,17,14,41,15.50
2007,07,17,14,42,15.60
2007,07,17,14,43,15.60
2007,07,17,14,44,15.60
2007,07,17,14,45,15.70
2007,07,17,14,46,15.70
2007,07,17,14,47,15.70
2007,07,17,14,48,15.70
2007,07,17,14,49,15.70
2007,07,17,14,50,15.70
2007,07,17,14,51,15.70
2007,07,17,14,52,15.70
2007,07,17,14,53,15.70
2007,07,17,14,54,15.70
2007,07,17,14,55,15.80
2007,07,17,14,56,15.80
2007,07,17,14,57,15.80
2007,07,17,14,58,15.90
2007,07,17,14,59,15.90
2007,07,17,15,00,15.90
2007,07,17,15,01,15.90
2007,07,17,15,02,15.90
2007,07,17,15,03,15.90
2007,07,17,15,04,15.90
2007,07,17,15,05,15.90
2007,07,17,15,06,15.90
2007,07,17,15,07,15.90
2007,07,17,15,08,15.80
2007,07,17,15,09,15.80
2007,07,17,15,10,15.70
2007,07,17,15,11,15.70
2007,07,17,15,12,15.60
2007,07,17,15,13,15.60
2007,07,17,15,14,15.60
2007,07,17,15,15,15.60
2007,07,17,15,16,15.50
2007,07,17,15,17,15.60
2007,07,17,15,18,15.60
2007,07,17,15,19,15.60
2007,07,17,15,20,15.60
2007,07,17,15,21,15.70
2007,07,17,15,22,15.70
2007,07,17,15,23,15.70
2007,07,17,15,24,15.70
2007,07,17,15,25,15.70
2007,07,17,15,26,15.80
2007,07,17,15,27,15.90
2007,07,17,15,28,16.10
2007,07,17,15,29,16.20
2007,07,17,15,30,16.40
2007,07,17,15,31,16.50
2007,07,17,15,32,16.60
2007,07,17,15,33,16.70
2007,07,17,15,34,16.70
2007,07,17,15,35,16.80
2007,07,17,15,36,16.80
2007,07,17,15,37,16.90
2007,07,17,15,38,16.90
2007,07,17,15,39,16.90
2007,07,17,15,40,17.00
2007,07,17,15,41,17.10
2007,07,17,15,42,17.20
2007,07,17,15,43,17.30
2007,07,17,15,44,17.40
2007,07,17,15,45,17.50
2007,07,17,15,46,17.60
2007,07,17,15,47,17.60
2007,07,17,15,48,17.70
2007,07,17,15,49,17.70
2007,07,17,15,50,17.70
2007,07,17,15,51,17.70
2007,07,17,15,52,17.60
2007,07,17,15,53,17.60
2007,07,17,15,54,17.60
2007,07,17,15,55,17.60
2007,07,17,15,56,17.60
2007,07,17,15,57,17.60
2007,07,17,15,58,17.50
2007,07,17,15,59,17.40
2007,07,17,16,00,17.20
2007,07,17,16,01,17.10
2007,07,17,16,02,17.00
2007,07,17,16,03,16.90
2007,07,17,16,04,16.80
2007,07,17,16,05,16.80
2007,07,17,16,06,16.80
2007,07,17,16,07,16.80
2007,07,17,16,08,16.80
2007,07,17,16,09,16.90
2007,07,17,16,10,17.00
2007,07,17,16,11,17.10
2007,07,17,16,12,17.10
2007,07,17,16,13,17.10
2007,07,17,16,14,17.20
2007,07,17,16,15,17.30
2007,07,17,16,16,17.30
2007,07,17,16,17,17.30
2007,07,17,16,18,17.40
2007,07,17,16,19,17.30
2007,07,17,16,20,17.30
2007,07,17,16,21,17.30
2007,07,17,16,22,17.30
2007,07,17,16,23,17.20
2007,07,17,16,24,17.10
2007,07,17,16,25,17.00
2007,07,17,16,26,17.00
2007,07,17,16,27,17.00
2007,07,17,16,28,17.10
2007,07,17,16,29,17.10
2007,07,17,16,30,17.20
2007,07,17,16,31,17.30
2007,07,17,16,32,17.30
2007,07,17,16,33,17.30
2007,07,17,16,34,17.30
2007,07,17,16,35,17.30
2007,07,17,16,36,17.30
2007,07,17,16,37,17.40
2007,07,17,16,38,17.50
2007,07,17,16,39,17.60
2007,07,17,16,40,17.70
2007,07,17,16,41,17.80
2007,07,17,16,42,17.80
2007,07,17,16,43,17.70
2007,07,17,16,44,17.70
2007,07,17,16,45,17.70
2007,07,17,16,46,17.70
2007,07,17,16,47,17.80
2007,07,17,16,48,17.80
2007,07,17,16,49,17.80
2007,07,17,16,50,17.70
2007,07,17,16,51,17.60
2007,07,17,16,52,17.50
2007,07,17,16,53,17.50
2007,07,17,16,54,17.40
2007,07,17,16,55,17.50
2007,07,17,16,56,17.50
2007,07,17,16,57,17.50
2007,07,17,16,58,17.50
2007,07,17,16,59,17.50
2007,07,17,17,00,17.50
2007,07,17,17,01,17.60
2007,07,17,17,02,17.70
2007,07,17,17,03,17.70
2007,07,17,17,04,17.60
2007,07,17,17,05,17.60
2007,07,17,17,06,17.70
2007,07,17,17,07,17.80
2007,07,17,17,08,17.80
2007,07,17,17,09,17.90
2007,07,17,17,10,18.00
2007,07,17,17,11,18.00
2007,07,17,17,12,18.10
2007,07,17,17,13,18.10
2007,07,17,17,14,18.10
2007,07,17,17,15,18.10
2007,07,17,17,16,18.20
2007,07,17,17,17,18.20
2007,07,17,17,18,18.20
2007,07,17,17,19,18.20
2007,07,17,17,20,18.20
2007,07,17,17,21,18.20
2007,07,17,17,22,18.10
2007,07,17,17,23,18.10
2007,07,17,17,24,18.20
2007,07,17,17,25,18.30
2007,07,17,17,26,18.30
2007,07,17,17,27,18.30
2007,07,17,17,28,18.30
2007,07,17,17,29,18.20
2007,07,17,17,30,18.20
2007,07,17,17,31,18.20
2007,07,17,17,32,18.20
2007,07,17,17,33,18.30
2007,07,17,17,34,18.30
2007,07,17,17,35,18.30
2007,07,17,17,36,18.30
2007,07,17,17,37,18.30
2007,07,17,17,38,18.10
2007,07,17,17,39,18.00
2007,07,17,17,40,17.90
2007,07,17,17,41,17.90
2007,07,17,17,42,17.80
2007,07,17,17,43,17.80
2007,07,17,17,44,17.80
2007,07,17,17,45,17.80
2007,07,17,17,46,17.80
2007,07,17,17,47,17.90
2007,07,17,17,48,18.00
2007,07,17,17,49,18.00
2007,07,17,17,50,18.00
2007,07,17,17,51,18.10
2007,07,17,17,52,18.20
2007,07,17,17,53,18.20
2007,07,17,17,54,18.20
2007,07,17,17,55,18.20
2007,07,17,17,56,18.30
2007,07,17,17,57,18.20
2007,07,17,17,58,18.20
2007,07,17,17,59,18.20
2007,07,17,18,00,18.20
2007,07,17,18,01,18.20
2007,07,17,18,02,18.20
2007,07,17,18,03,18.20
2007,07,17,18,04,18.20
2007,07,17,18,05,18.20
2007,07,17,18,06,18.20
2007,07,17,18,07,18.20